utcTime,localTime,pm25,nowcast
2021-05-08 23:00:00 +0000,2021-05-08 16:00:00 -0700,2,NA
2021-05-09 00:00:00 +0000,2021-05-08 17:00:00 -0700,8,6
2021-05-09 01:00:00 +0000,2021-05-08 18:00:00 -0700,2,3.7
2021-05-09 02:00:00 +0000,2021-05-08 19:00:00 -0700,0,1.7
2021-05-09 03:00:00 +0000,2021-05-08 20:00:00 -0700,0,0.8
2021-05-09 04:00:00 +0000,2021-05-08 21:00:00 -0700,25,13.1
2021-05-09 05:00:00 +0000,2021-05-08 22:00:00 -0700,49,31.1
2021-05-09 06:00:00 +0000,2021-05-08 23:00:00 -0700,36,33.6
2021-05-09 07:00:00 +0000,2021-05-09 00:00:00 -0700,44,38.8
2021-05-09 08:00:00 +0000,2021-05-09 01:00:00 -0700,14,26.3
2021-05-09 09:00:00 +0000,2021-05-09 02:00:00 -0700,12,19.1
2021-05-09 10:00:00 +0000,2021-05-09 03:00:00 -0700,5,12
2021-05-09 11:00:00 +0000,2021-05-09 04:00:00 -0700,8,10
2021-05-09 12:00:00 +0000,2021-05-09 05:00:00 -0700,6,8
2021-05-09 13:00:00 +0000,2021-05-09 06:00:00 -0700,0,4
2021-05-09 14:00:00 +0000,2021-05-09 07:00:00 -0700,5,4.5
2021-05-09 15:00:00 +0000,2021-05-09 08:00:00 -0700,24,14.2
2021-05-09 16:00:00 +0000,2021-05-09 09:00:00 -0700,0,7.1
2021-05-09 17:00:00 +0000,2021-05-09 10:00:00 -0700,5,6
2021-05-09 18:00:00 +0000,2021-05-09 11:00:00 -0700,6,6
2021-05-09 19:00:00 +0000,2021-05-09 12:00:00 -0700,6,6
2021-05-09 20:00:00 +0000,2021-05-09 13:00:00 -0700,6,6
2021-05-09 21:00:00 +0000,2021-05-09 14:00:00 -0700,15,10.5
2021-05-09 22:00:00 +0000,2021-05-09 15:00:00 -0700,2,6.2
2021-05-09 23:00:00 +0000,2021-05-09 16:00:00 -0700,5,5.6
2021-05-10 00:00:00 +0000,2021-05-09 17:00:00 -0700,11,8.3
2021-05-10 01:00:00 +0000,2021-05-09 18:00:00 -0700,6,7.1
2021-05-10 02:00:00 +0000,2021-05-09 19:00:00 -0700,4,5.5
2021-05-10 03:00:00 +0000,2021-05-09 20:00:00 -0700,-0,2.7
2021-05-10 04:00:00 +0000,2021-05-09 21:00:00 -0700,2,2.3
2021-05-10 05:00:00 +0000,2021-05-09 22:00:00 -0700,54,28.2
2021-05-10 06:00:00 +0000,2021-05-09 23:00:00 -0700,27,27.6
2021-05-10 07:00:00 +0000,2021-05-10 00:00:00 -0700,9,18.3
2021-05-10 08:00:00 +0000,2021-05-10 01:00:00 -0700,0,9.1
2021-05-10 09:00:00 +0000,2021-05-10 02:00:00 -0700,9,9
2021-05-10 10:00:00 +0000,2021-05-10 03:00:00 -0700,10,9.5
2021-05-10 11:00:00 +0000,2021-05-10 04:00:00 -0700,0,4.7
2021-05-10 12:00:00 +0000,2021-05-10 05:00:00 -0700,10,7.3
2021-05-10 13:00:00 +0000,2021-05-10 06:00:00 -0700,4,5.6
2021-05-10 14:00:00 +0000,2021-05-10 07:00:00 -0700,9,7.3
2021-05-10 15:00:00 +0000,2021-05-10 08:00:00 -0700,17,12.1
2021-05-10 16:00:00 +0000,2021-05-10 09:00:00 -0700,-0,6
2021-05-10 17:00:00 +0000,2021-05-10 10:00:00 -0700,-0,3
2021-05-10 18:00:00 +0000,2021-05-10 11:00:00 -0700,6,4.5
2021-05-10 19:00:00 +0000,2021-05-10 12:00:00 -0700,15,9.7
2021-05-10 20:00:00 +0000,2021-05-10 13:00:00 -0700,3,6.3
2021-05-10 21:00:00 +0000,2021-05-10 14:00:00 -0700,9,7.6
2021-05-10 22:00:00 +0000,2021-05-10 15:00:00 -0700,3,5.3
2021-05-10 23:00:00 +0000,2021-05-10 16:00:00 -0700,6,5.6
2021-05-11 00:00:00 +0000,2021-05-10 17:00:00 -0700,6,5.8
2021-05-11 01:00:00 +0000,2021-05-10 18:00:00 -0700,7,6.4
2021-05-11 02:00:00 +0000,2021-05-10 19:00:00 -0700,0,3.2
2021-05-11 03:00:00 +0000,2021-05-10 20:00:00 -0700,5,4.1
2021-05-11 04:00:00 +0000,2021-05-10 21:00:00 -0700,42,23
2021-05-11 05:00:00 +0000,2021-05-10 22:00:00 -0700,85,54
2021-05-11 06:00:00 +0000,2021-05-10 23:00:00 -0700,52,53
2021-05-11 07:00:00 +0000,2021-05-11 00:00:00 -0700,12,32.5
2021-05-11 08:00:00 +0000,2021-05-11 01:00:00 -0700,0,16.2
2021-05-11 09:00:00 +0000,2021-05-11 02:00:00 -0700,5,10.6
2021-05-11 10:00:00 +0000,2021-05-11 03:00:00 -0700,0,5.3
2021-05-11 11:00:00 +0000,2021-05-11 04:00:00 -0700,3,4.1
2021-05-11 12:00:00 +0000,2021-05-11 05:00:00 -0700,5,4.5
2021-05-11 13:00:00 +0000,2021-05-11 06:00:00 -0700,2,3.2
2021-05-11 14:00:00 +0000,2021-05-11 07:00:00 -0700,10,6.6
2021-05-11 15:00:00 +0000,2021-05-11 08:00:00 -0700,13,9.8
2021-05-11 16:00:00 +0000,2021-05-11 09:00:00 -0700,0,4.9
2021-05-11 17:00:00 +0000,2021-05-11 10:00:00 -0700,2,3.4
2021-05-11 18:00:00 +0000,2021-05-11 11:00:00 -0700,7,5.2
2021-05-11 19:00:00 +0000,2021-05-11 12:00:00 -0700,7,6.1
2021-05-11 20:00:00 +0000,2021-05-11 13:00:00 -0700,3,4.5
2021-05-11 21:00:00 +0000,2021-05-11 14:00:00 -0700,8,6.2
2021-05-11 22:00:00 +0000,2021-05-11 15:00:00 -0700,6,6.1
2021-05-11 23:00:00 +0000,2021-05-11 16:00:00 -0700,11,8.5
2021-05-12 00:00:00 +0000,2021-05-11 17:00:00 -0700,8,8.2
2021-05-12 01:00:00 +0000,2021-05-11 18:00:00 -0700,8,8.1
2021-05-12 02:00:00 +0000,2021-05-11 19:00:00 -0700,12,10
2021-05-12 03:00:00 +0000,2021-05-11 20:00:00 -0700,6,8
2021-05-12 04:00:00 +0000,2021-05-11 21:00:00 -0700,33,20.5
2021-05-12 05:00:00 +0000,2021-05-11 22:00:00 -0700,46,33.2
2021-05-12 06:00:00 +0000,2021-05-11 23:00:00 -0700,32,32.6
2021-05-12 07:00:00 +0000,2021-05-12 00:00:00 -0700,5,18.8
2021-05-12 08:00:00 +0000,2021-05-12 01:00:00 -0700,11,14.9
2021-05-12 09:00:00 +0000,2021-05-12 02:00:00 -0700,0,7.4
2021-05-12 10:00:00 +0000,2021-05-12 03:00:00 -0700,4,5.7
2021-05-12 11:00:00 +0000,2021-05-12 04:00:00 -0700,4,4.8
2021-05-12 12:00:00 +0000,2021-05-12 05:00:00 -0700,0,2.4
2021-05-12 13:00:00 +0000,2021-05-12 06:00:00 -0700,9,5.7
2021-05-12 14:00:00 +0000,2021-05-12 07:00:00 -0700,8,6.8
2021-05-12 15:00:00 +0000,2021-05-12 08:00:00 -0700,26,16.4
2021-05-12 16:00:00 +0000,2021-05-12 09:00:00 -0700,0,8.2
2021-05-12 17:00:00 +0000,2021-05-12 10:00:00 -0700,5,6.6
2021-05-12 18:00:00 +0000,2021-05-12 11:00:00 -0700,7,6.7
2021-05-12 19:00:00 +0000,2021-05-12 12:00:00 -0700,7,6.8
2021-05-12 20:00:00 +0000,2021-05-12 13:00:00 -0700,5,5.9
2021-05-12 21:00:00 +0000,2021-05-12 14:00:00 -0700,11,8.4
2021-05-12 22:00:00 +0000,2021-05-12 15:00:00 -0700,10,9.2
2021-05-12 23:00:00 +0000,2021-05-12 16:00:00 -0700,2,5.6
2021-05-13 00:00:00 +0000,2021-05-12 17:00:00 -0700,6,5.8
2021-05-13 01:00:00 +0000,2021-05-12 18:00:00 -0700,2,3.9
2021-05-13 02:00:00 +0000,2021-05-12 19:00:00 -0700,9,6.4
2021-05-13 03:00:00 +0000,2021-05-12 20:00:00 -0700,5,5.7
2021-05-13 04:00:00 +0000,2021-05-12 21:00:00 -0700,40,22.8
2021-05-13 05:00:00 +0000,2021-05-12 22:00:00 -0700,41,31.9
2021-05-13 06:00:00 +0000,2021-05-12 23:00:00 -0700,28,29.9
2021-05-13 07:00:00 +0000,2021-05-13 00:00:00 -0700,8,18.9
2021-05-13 08:00:00 +0000,2021-05-13 01:00:00 -0700,-0,9.4
2021-05-13 09:00:00 +0000,2021-05-13 02:00:00 -0700,6,7.7
2021-05-13 10:00:00 +0000,2021-05-13 03:00:00 -0700,1,4.3
2021-05-13 11:00:00 +0000,2021-05-13 04:00:00 -0700,6,5.1
2021-05-13 12:00:00 +0000,2021-05-13 05:00:00 -0700,8,6.5
2021-05-13 13:00:00 +0000,2021-05-13 06:00:00 -0700,7,6.7
2021-05-13 14:00:00 +0000,2021-05-13 07:00:00 -0700,5,5.8
2021-05-13 15:00:00 +0000,2021-05-13 08:00:00 -0700,0,2.9
2021-05-13 16:00:00 +0000,2021-05-13 09:00:00 -0700,8,5.4
2021-05-13 17:00:00 +0000,2021-05-13 10:00:00 -0700,7,6.2
2021-05-13 18:00:00 +0000,2021-05-13 11:00:00 -0700,10,8.1
2021-05-13 19:00:00 +0000,2021-05-13 12:00:00 -0700,1,4.5
2021-05-13 20:00:00 +0000,2021-05-13 13:00:00 -0700,7,5.7
2021-05-13 21:00:00 +0000,2021-05-13 14:00:00 -0700,9,7.3
2021-05-13 22:00:00 +0000,2021-05-13 15:00:00 -0700,2,4.6
2021-05-13 23:00:00 +0000,2021-05-13 16:00:00 -0700,9,6.8
2021-05-14 00:00:00 +0000,2021-05-13 17:00:00 -0700,7,6.9
2021-05-14 01:00:00 +0000,2021-05-13 18:00:00 -0700,1,3.9
2021-05-14 02:00:00 +0000,2021-05-13 19:00:00 -0700,5,4.4
2021-05-14 03:00:00 +0000,2021-05-13 20:00:00 -0700,4,4.2
2021-05-14 04:00:00 +0000,2021-05-13 21:00:00 -0700,14,9.1
2021-05-14 05:00:00 +0000,2021-05-13 22:00:00 -0700,32,20.5
2021-05-14 06:00:00 +0000,2021-05-13 23:00:00 -0700,20,20.2
2021-05-14 07:00:00 +0000,2021-05-14 00:00:00 -0700,5,12.6
2021-05-14 08:00:00 +0000,2021-05-14 01:00:00 -0700,5,8.8
2021-05-14 09:00:00 +0000,2021-05-14 02:00:00 -0700,10,9.4
2021-05-14 10:00:00 +0000,2021-05-14 03:00:00 -0700,4,6.7
2021-05-14 11:00:00 +0000,2021-05-14 04:00:00 -0700,7,6.8
2021-05-14 12:00:00 +0000,2021-05-14 05:00:00 -0700,0,3.4
2021-05-14 13:00:00 +0000,2021-05-14 06:00:00 -0700,12,7.7
2021-05-14 14:00:00 +0000,2021-05-14 07:00:00 -0700,5,6.3
2021-05-14 15:00:00 +0000,2021-05-14 08:00:00 -0700,22,14.1
2021-05-14 16:00:00 +0000,2021-05-14 09:00:00 -0700,0,7
2021-05-14 17:00:00 +0000,2021-05-14 10:00:00 -0700,3,5
2021-05-14 18:00:00 +0000,2021-05-14 11:00:00 -0700,5,5
2021-05-14 19:00:00 +0000,2021-05-14 12:00:00 -0700,9,7
2021-05-14 20:00:00 +0000,2021-05-14 13:00:00 -0700,3,5
2021-05-14 21:00:00 +0000,2021-05-14 14:00:00 -0700,12,8.5
2021-05-14 22:00:00 +0000,2021-05-14 15:00:00 -0700,0,4.2
2021-05-14 23:00:00 +0000,2021-05-14 16:00:00 -0700,5,4.6
2021-05-15 00:00:00 +0000,2021-05-14 17:00:00 -0700,-0,2.3
2021-05-15 01:00:00 +0000,2021-05-14 18:00:00 -0700,8,5.1
2021-05-15 02:00:00 +0000,2021-05-14 19:00:00 -0700,4,4.5
2021-05-15 03:00:00 +0000,2021-05-14 20:00:00 -0700,15,9.7
2021-05-15 04:00:00 +0000,2021-05-14 21:00:00 -0700,22,15.8
2021-05-15 05:00:00 +0000,2021-05-14 22:00:00 -0700,24,19.9
2021-05-15 06:00:00 +0000,2021-05-14 23:00:00 -0700,17,18.4
2021-05-15 07:00:00 +0000,2021-05-15 00:00:00 -0700,29,23.7
2021-05-15 08:00:00 +0000,2021-05-15 01:00:00 -0700,4,13.8
2021-05-15 09:00:00 +0000,2021-05-15 02:00:00 -0700,21,17.4
2021-05-15 10:00:00 +0000,2021-05-15 03:00:00 -0700,17,17.2
2021-05-15 11:00:00 +0000,2021-05-15 04:00:00 -0700,14,15.6
2021-05-15 12:00:00 +0000,2021-05-15 05:00:00 -0700,13,14.3
2021-05-15 13:00:00 +0000,2021-05-15 06:00:00 -0700,7,10.6
2021-05-15 14:00:00 +0000,2021-05-15 07:00:00 -0700,5,7.8
2021-05-15 15:00:00 +0000,2021-05-15 08:00:00 -0700,24,15.9
2021-05-15 16:00:00 +0000,2021-05-15 09:00:00 -0700,0,7.9
2021-05-15 17:00:00 +0000,2021-05-15 10:00:00 -0700,11,9.4
2021-05-15 18:00:00 +0000,2021-05-15 11:00:00 -0700,2,5.7
2021-05-15 19:00:00 +0000,2021-05-15 12:00:00 -0700,9,7.3
2021-05-15 20:00:00 +0000,2021-05-15 13:00:00 -0700,4,5.6
2021-05-15 21:00:00 +0000,2021-05-15 14:00:00 -0700,9,7.3
2021-05-15 22:00:00 +0000,2021-05-15 15:00:00 -0700,3,5.1
2021-05-15 23:00:00 +0000,2021-05-15 16:00:00 -0700,4,4.5
2021-05-16 00:00:00 +0000,2021-05-15 17:00:00 -0700,2,3.2
2021-05-16 01:00:00 +0000,2021-05-15 18:00:00 -0700,6,4.6
2021-05-16 02:00:00 +0000,2021-05-15 19:00:00 -0700,-0,2.3
2021-05-16 03:00:00 +0000,2021-05-15 20:00:00 -0700,0,1.1
2021-05-16 04:00:00 +0000,2021-05-15 21:00:00 -0700,7,4
2021-05-16 05:00:00 +0000,2021-05-15 22:00:00 -0700,13,8.5
2021-05-16 06:00:00 +0000,2021-05-15 23:00:00 -0700,3,5.7
2021-05-16 07:00:00 +0000,2021-05-16 00:00:00 -0700,14,9.8
2021-05-16 08:00:00 +0000,2021-05-16 01:00:00 -0700,2,5.9
2021-05-16 09:00:00 +0000,2021-05-16 02:00:00 -0700,3,4.4
2021-05-16 10:00:00 +0000,2021-05-16 03:00:00 -0700,2,3.2
2021-05-16 11:00:00 +0000,2021-05-16 04:00:00 -0700,5,4.1
2021-05-16 12:00:00 +0000,2021-05-16 05:00:00 -0700,-0,2
2021-05-16 13:00:00 +0000,2021-05-16 06:00:00 -0700,11,6.5
2021-05-16 14:00:00 +0000,2021-05-16 07:00:00 -0700,0,3.2
2021-05-16 15:00:00 +0000,2021-05-16 08:00:00 -0700,19,11.1
2021-05-16 16:00:00 +0000,2021-05-16 09:00:00 -0700,3,7
2021-05-16 17:00:00 +0000,2021-05-16 10:00:00 -0700,0,3.5
2021-05-16 18:00:00 +0000,2021-05-16 11:00:00 -0700,5,4.2
2021-05-16 19:00:00 +0000,2021-05-16 12:00:00 -0700,6,5.1
2021-05-16 20:00:00 +0000,2021-05-16 13:00:00 -0700,6,5.5
2021-05-16 21:00:00 +0000,2021-05-16 14:00:00 -0700,4,4.7
2021-05-16 22:00:00 +0000,2021-05-16 15:00:00 -0700,1,2.8
2021-05-16 23:00:00 +0000,2021-05-16 16:00:00 -0700,8,5.4
2021-05-17 00:00:00 +0000,2021-05-16 17:00:00 -0700,-0,2.7
2021-05-17 01:00:00 +0000,2021-05-16 18:00:00 -0700,12,7.3
2021-05-17 02:00:00 +0000,2021-05-16 19:00:00 -0700,NA,NA
2021-05-17 03:00:00 +0000,2021-05-16 20:00:00 -0700,NA,NA
2021-05-17 04:00:00 +0000,2021-05-16 21:00:00 -0700,NA,NA
2021-05-17 05:00:00 +0000,2021-05-16 22:00:00 -0700,NA,NA
2021-05-17 06:00:00 +0000,2021-05-16 23:00:00 -0700,NA,NA
2021-05-17 07:00:00 +0000,2021-05-17 00:00:00 -0700,NA,NA
2021-05-17 08:00:00 +0000,2021-05-17 01:00:00 -0700,NA,NA
2021-05-17 09:00:00 +0000,2021-05-17 02:00:00 -0700,NA,NA
2021-05-17 10:00:00 +0000,2021-05-17 03:00:00 -0700,NA,NA
2021-05-17 11:00:00 +0000,2021-05-17 04:00:00 -0700,6,NA
2021-05-17 12:00:00 +0000,2021-05-17 05:00:00 -0700,0,2
2021-05-17 13:00:00 +0000,2021-05-17 06:00:00 -0700,NA,NA
2021-05-17 14:00:00 +0000,2021-05-17 07:00:00 -0700,NA,NA
2021-05-17 15:00:00 +0000,2021-05-17 08:00:00 -0700,NA,NA
2021-05-17 16:00:00 +0000,2021-05-17 09:00:00 -0700,0,NA
2021-05-17 17:00:00 +0000,2021-05-17 10:00:00 -0700,3,2
2021-05-17 18:00:00 +0000,2021-05-17 11:00:00 -0700,-0,0.8
2021-05-17 19:00:00 +0000,2021-05-17 12:00:00 -0700,18,9.9
2021-05-17 20:00:00 +0000,2021-05-17 13:00:00 -0700,6,7.9
2021-05-17 21:00:00 +0000,2021-05-17 14:00:00 -0700,9,8.4
2021-05-17 22:00:00 +0000,2021-05-17 15:00:00 -0700,10,9.2
2021-05-17 23:00:00 +0000,2021-05-17 16:00:00 -0700,7,8.1
2021-05-18 00:00:00 +0000,2021-05-17 17:00:00 -0700,18,13
2021-05-18 01:00:00 +0000,2021-05-17 18:00:00 -0700,0,6.5
2021-05-18 02:00:00 +0000,2021-05-17 19:00:00 -0700,8,7.2
2021-05-18 03:00:00 +0000,2021-05-17 20:00:00 -0700,10,8.6
2021-05-18 04:00:00 +0000,2021-05-17 21:00:00 -0700,7,7.8
2021-05-18 05:00:00 +0000,2021-05-17 22:00:00 -0700,-0,3.9
2021-05-18 06:00:00 +0000,2021-05-17 23:00:00 -0700,6,4.9
2021-05-18 07:00:00 +0000,2021-05-18 00:00:00 -0700,5,4.9
2021-05-18 08:00:00 +0000,2021-05-18 01:00:00 -0700,1,2.9
2021-05-18 09:00:00 +0000,2021-05-18 02:00:00 -0700,6,4.4
2021-05-18 10:00:00 +0000,2021-05-18 03:00:00 -0700,0,2.2
2021-05-18 11:00:00 +0000,2021-05-18 04:00:00 -0700,5,3.6
2021-05-18 12:00:00 +0000,2021-05-18 05:00:00 -0700,4,3.8
2021-05-18 13:00:00 +0000,2021-05-18 06:00:00 -0700,2,2.9
2021-05-18 14:00:00 +0000,2021-05-18 07:00:00 -0700,8,5.4
2021-05-18 15:00:00 +0000,2021-05-18 08:00:00 -0700,14,9.7
2021-05-18 16:00:00 +0000,2021-05-18 09:00:00 -0700,0,4.8
2021-05-18 17:00:00 +0000,2021-05-18 10:00:00 -0700,0,2.4
2021-05-18 18:00:00 +0000,2021-05-18 11:00:00 -0700,11,6.7
2021-05-18 19:00:00 +0000,2021-05-18 12:00:00 -0700,3,4.8
2021-05-18 20:00:00 +0000,2021-05-18 13:00:00 -0700,8,6.4
2021-05-18 21:00:00 +0000,2021-05-18 14:00:00 -0700,8,7.2
2021-05-18 22:00:00 +0000,2021-05-18 15:00:00 -0700,6,6.6
2021-05-18 23:00:00 +0000,2021-05-18 16:00:00 -0700,3,4.8
2021-05-19 00:00:00 +0000,2021-05-18 17:00:00 -0700,7,5.9
2021-05-19 01:00:00 +0000,2021-05-18 18:00:00 -0700,3,4.4
2021-05-19 02:00:00 +0000,2021-05-18 19:00:00 -0700,4,4.2
2021-05-19 03:00:00 +0000,2021-05-18 20:00:00 -0700,5,4.6
2021-05-19 04:00:00 +0000,2021-05-18 21:00:00 -0700,6,5.3
2021-05-19 05:00:00 +0000,2021-05-18 22:00:00 -0700,8,6.6
2021-05-19 06:00:00 +0000,2021-05-18 23:00:00 -0700,18,12.3
2021-05-19 07:00:00 +0000,2021-05-19 00:00:00 -0700,15,13.6
2021-05-19 08:00:00 +0000,2021-05-19 01:00:00 -0700,5,9.3
2021-05-19 09:00:00 +0000,2021-05-19 02:00:00 -0700,3,6.1
2021-05-19 10:00:00 +0000,2021-05-19 03:00:00 -0700,5,5.5
2021-05-19 11:00:00 +0000,2021-05-19 04:00:00 -0700,8,6.7
2021-05-19 12:00:00 +0000,2021-05-19 05:00:00 -0700,0,3.3
2021-05-19 13:00:00 +0000,2021-05-19 06:00:00 -0700,5,4.1
2021-05-19 14:00:00 +0000,2021-05-19 07:00:00 -0700,2,3
2021-05-19 15:00:00 +0000,2021-05-19 08:00:00 -0700,17,10
2021-05-19 16:00:00 +0000,2021-05-19 09:00:00 -0700,0,5
2021-05-19 17:00:00 +0000,2021-05-19 10:00:00 -0700,4,4.5
2021-05-19 18:00:00 +0000,2021-05-19 11:00:00 -0700,2,3.2
2021-05-19 19:00:00 +0000,2021-05-19 12:00:00 -0700,3,3.1
2021-05-19 20:00:00 +0000,2021-05-19 13:00:00 -0700,7,5
2021-05-19 21:00:00 +0000,2021-05-19 14:00:00 -0700,8,6.5
2021-05-19 22:00:00 +0000,2021-05-19 15:00:00 -0700,0,3.2
